Location: Asheville, NC
(35.6000°N, 82.5500°W)
Time: 07:03:49
(UTC-05:00)

Tiangong 1 - Pass Details

Date: 16 February 2018
Orbit: 249 x 271 km, 42.8° (Epoch: 19 February)

Event Time Altitude Azimuth Distance (km) Brightness Sun altitude
Exits shadow 05:52:29 17° 19° (NNE) 748 2.7 -17.6°
Drops below altitude 10° 05:53:55 10° 57° (ENE) 1,032 4.0 -17.3°
Sets 05:56:10 0° 80° (E) 1,840 6.1 -16.8°
